Location: Luxembourg
(49.6117°N, 6.1300°E)
Time: 21:24:09
(UTC+02:00)

Envisat - Pass Details

Date: 25 January 2019
Orbit: 764 x 766 km, 98.1° (Epoch: 16 October)

Event Time Altitude Azimuth Distance (km) Brightness Sun altitude
Rises 20:58:15 0° 223° (SW) 3,224 6.6 -35.2°
Reaches altitude 10° 21:02:20 10° 256° (WSW) 2,305 6.1 -35.9°
Maximum altitude 21:04:01 12° 276° (W) 2,203 6.1 -36.1°
Drops below altitude 10° 21:05:42 10° 295° (WNW) 2,311 6.2 -36.4°
Sets 21:09:50 0° 328° (NNW) 3,244 6.8 -37.0°
